This demonstration page uses our WeatherBlox Daily Observations layout. Learn more.

Left ArrowRight Arrow

39.12711, -84.51439

Hourly Observations for June 3, 2015

Temp ( °F °C ) Dew Point ( °F °C ) Humidity (%) Winds ( mph kmh ) Pressure ( in mb ) Visibility ( mi km ) Precip ( " mm )
12:53 am 00:53 Mostly Clear 55 12.8 54 12.2 96 96 Calm 30.11 1020 8 13 0.00 0.00
1:53 am 01:53 Clear with Mist and Fog 53 11.7 52 11.1 96 96 ENE 3 6 30.09 1019 3 5 0.00 0.00
1:58 am 01:58 Clear with Mist and Fog 54 12 52 11 94 94 NE 3 6 30.09 1019 2 3 0.00 0.00
2:06 am 02:06 Clear with Mist and Fog 54 12 54 12 100 100 NE 5 7 30.09 1019 3 5 0.00 0.00
2:24 am 02:24 Clear with Mist and Fog 54 12 54 12 100 100 NNE 3 6 30.09 1019 2 2 0.00 0.00
2:45 am 02:45 Clear with Mist and Fog 52 11.1 52 11.1 100 100 ENE 3 6 30.09 1019 3 4 0.00 0.00
2:53 am 02:53 Clear with Mist and Fog 51 10.6 51 10.6 100 100 E 3 6 30.08 1019 2 3 0.00 0.00
2:57 am 02:57 Clear with Mist and Fog 51 10.6 51 10.6 100 100 Calm 30.09 1019 3 5 0.00 0.00
3:11 am 03:11 Clear with Mist and Fog 51 10.6 51 10.6 100 100 Calm 30.09 1019 2 2 0.00 0.00
3:13 am 03:13 Mostly Cloudy with Mist and Fog 50 10 50 10 100 100 Calm 30.09 1019 1 1 0.00 0.00
3:24 am 03:24 Mostly Cloudy with Mist and Fog 50 10 50 10 100 100 Calm 30.09 1019 1 2 0.00 0.00
3:31 am 03:31 Partly Cloudy with Mist and Fog 50 10 50 10 100 100 Calm 30.09 1019 2 3 0.00 0.00
3:33 am 03:33 Mostly Cloudy with Mist and Fog 50 10 50 10 100 100 Calm 30.09 1019 2 3 0.00 0.00
3:38 am 03:38 Mostly Cloudy with Fog 50 10 50 10 100 100 Calm 30.09 1019 1 1 0.00 0.00
3:53 am 03:53 Mostly Cloudy with Mist and Fog 50 10 50 10 100 100 Calm 30.07 1018 1 2 0.00 0.00
3:58 am 03:58 Mostly Cloudy with Fog 51 10.6 51 10.6 100 100 Calm 30.09 1019 0 0 0.00 0.00
4:05 am 04:05 Mostly Cloudy with Fog 50 10 50 10 100 100 ENE 3 6 30.06 1018 0 0 0.00 0.00
4:40 am 04:40 Cloudy with Mist and Fog 52 11 52 11 100 100 Calm 30.09 1019 1 1 0.00 0.00
4:53 am 04:53 Cloudy with Mist and Fog 50 10 50 10 100 100 Calm 30.07 1018 2 2 0.00 0.00
5:01 am 05:01 Cloudy with Mist and Fog 50 10 50 10 100 100 Calm 30.09 1019 3 4 0.00 0.00
5:08 am 05:08 Cloudy with Mist and Fog 52 11 52 11 100 100 Calm 30.09 1019 4 6 0.00 0.00
5:53 am 05:53 Mostly Cloudy with Mist and Fog 51 10.6 51 10.6 100 100 Calm 30.07 1018 4 6 0.00 0.00
6:26 am 06:26 Cloudy with Mist and Fog 52 11.1 52 11.1 100 100 Calm 30.09 1019 4 6 0.00 0.00
6:53 am 06:53 Cloudy with Mist and Fog 54 12.2 53 11.7 97 97 Calm 30.08 1019 3 5 0.00 0.00
7:53 am 07:53 Cloudy with Mist and Fog 56 13.3 54 12.2 93 93 Calm 30.10 1019 4 6 0.00 0.00
8:53 am 08:53 Cloudy with Mist and Fog 57 13.9 55 12.8 93 93 ENE 3 6 30.10 1019 4 6 0.00 0.00
9:53 am 09:53 Mostly Cloudy with Haze 62 16.7 57 13.9 84 84 NNE 5 7 30.09 1019 6 10 0.00 0.00
10:01 am 10:01 Cloudy with Haze 62 16.7 56 13.3 80 80 NNE 5 7 30.06 1018 6 10 0.00 0.00
10:53 am 10:53 Cloudy 64 17.8 57 13.9 78 78 Calm 30.08 1019 7 11 0.00 0.00
11:40 am 11:40 Cloudy 66 18.9 56 13.3 70 70 VRB 6 9 30.06 1018 9 14 0.00 0.00
11:53 am 11:53 Cloudy 68 20 58 14.4 70 70 NE 6 9 30.07 1018 9 14 0.00 0.00
12:53 pm 12:53 Cloudy 69 20.6 58 14.4 68 68 undefined N/A 30.06 1018 10 16 0.00 0.00
1:53 pm 13:53 Cloudy 69 20.6 57 13.9 66 66 Calm 30.06 1018 9 14 0.00 0.00
2:53 pm 14:53 Cloudy 70 21.1 58 14.4 66 66 Calm 30.05 1018 9 14 0.00 0.00
3:53 pm 15:53 Cloudy 71 21.7 58 14.4 63 63 Calm 30.04 1017 9 14 0.00 0.00
4:53 pm 16:53 Cloudy 72 22.2 59 15 64 64 Calm 30.02 1017 9 14 0.00 0.00
5:53 pm 17:53 Mostly Cloudy 72 22.2 59 15 64 64 E 6 9 30.01 1016 10 16 0.00 0.00
6:53 pm 18:53 Mostly Cloudy 71 21.7 60 15.6 68 68 Calm 30.01 1016 10 16 0.00 0.00
7:53 pm 19:53 Cloudy 70 21.1 61 16.1 73 73 SE 3 6 30.02 1017 10 16 0.00 0.00
8:53 pm 20:53 Partly Cloudy 65 18.3 61 16.1 87 87 Calm 30.02 1017 9 14 0.00 0.00
9:53 pm 21:53 Clear 61 16.1 59 15 93 93 Calm 30.03 1017 8 13 0.00 0.00
10:53 pm 22:53 Clear with Mist and Fog 58 14.4 58 14.4 100 100 Calm 30.04 1017 5 8 0.00 0.00
11:53 pm 23:53 Clear with Mist and Fog 58 14.4 57 13.9 97 97 NNE 3 6 30.02 1017 5 8 0.00 0.00

Powered by AerisWeather